{"data":{"norad_id":56048,"intl_designator":"2023-043C","name":"ONEWEB-0546","alt_names":[],"object_type":"PAYLOAD","status":"ACTIVE","operator":null,"country":"UK","launch_date":"2023-03-26","launch_site_code":"SRILR","launch_vehicle":null,"mission":null,"orbit_class":"UNKNOWN","rcs_meters":null,"size_class":null,"mass_kg":null,"dimensions":null,"purposes":["comms"],"wikipedia_slug":null,"has_3d_model":false,"image_url":null,"decayed_at":null,"tle_current":{"epoch":"2026-09-20T04:07:22.973088Z","epoch_age_seconds":46662,"freshness":"FRESH","line1":"1 56048U 23043C   26263.17179367  .00000032  00000+0  50222-4 0  9994","line2":"2 56048  87.9157 209.9161 0001824  98.2861 261.8476 13.16595774171460","mean_motion":13.16595774,"eccentricity":0.0001824,"inclination_deg":87.9157,"raan_deg":209.9161,"arg_perigee_deg":98.2861,"mean_anomaly_deg":261.8476,"bstar":5.0222e-5,"rev_number":17146,"period_min":109.3729775256,"perigee_km":1196.3690057825,"apogee_km":1199.1326896693,"semimajor_km":7575.8878477259,"source":"CELESTRAK","updated_at":"2026-09-20T09:00:44.786627Z"}}}